Total_Precipitation_Accumulation
0.10 0.24 0.60 0.87 0.91 0.86 0.83 0.82 0.78 0.71 0.69 0.75 0.83 0.92 0.95 0.90 0.87 0.87 0.89 0.91 0.87 0.90 0.98 1.10 1.11 1.08 1.04 0.97 0.84 0.76 0.74 0.75 0.78 0.74 0.80 0.88 0.90 0.84 0.75 0.68 0.53 0.60 0.89
0.09 0.24 0.56 0.75 0.84 0.88 0.87 0.83 0.76 0.66 0.66 0.72 0.81 0.86 0.94 0.94 0.90 0.92 0.93 0.98 0.93 0.94 1.01 1.12 1.13 1.10 1.09 0.95 0.79 0.67 0.62 0.58 0.58 0.56 0.55 0.57 0.76 0.85 0.78 0.76 0.70 0.91 1.03
0.09 0.22 0.47 0.69 0.80 0.87 0.87 0.81 0.74 0.69 0.70 0.77 0.82 0.84 0.87 0.94 0.97 1.02 1.04 1.02 0.97 0.93 0.92 0.99 1.07 1.07 1.01 0.90 0.76 0.65 0.59 0.52 0.45 0.42 0.42 0.39 0.63 0.92 0.91 0.88 0.85 1.07 1.06
0.11 0.21 0.38 0.64 0.78 0.84 0.86 0.84 0.83 0.85 0.83 0.89 0.92 0.89 0.86 0.93 1.02 1.09 1.04 1.03 1.01 0.95 0.89 0.89 0.91 0.94 0.81 0.70 0.70 0.67 0.63 0.53 0.39 0.33 0.24 0.28 0.58 0.98 1.04 0.96 0.91 0.97 1.02
0.14 0.22 0.43 0.69 0.83 0.87 0.92 0.90 0.89 0.92 0.97 1.00 1.00 1.00 1.00 1.03 1.05 1.11 1.10 1.07 1.02 0.95 0.90 0.88 0.82 0.80 0.76 0.70 0.69 0.68 0.64 0.52 0.37 0.27 0.17 0.23 0.49 0.93 0.95 0.92 0.87 0.90 0.93
0.21 0.27 0.49 0.72 0.88 0.93 0.98 0.98 0.98 1.01 1.04 1.08 1.04 1.05 1.08 1.18 1.18 1.12 1.09 1.13 1.11 0.96 0.91 0.89 0.83 0.81 0.74 0.70 0.71 0.73 0.69 0.58 0.38 0.23 0.19 0.22 0.35 0.72 0.89 1.00 0.99 0.96 0.91
0.30 0.35 0.53 0.77 0.94 1.04 1.10 1.13 1.18 1.21 1.21 1.19 1.15 1.09 1.08 1.12 1.19 1.14 1.05 1.05 1.01 0.95 0.91 0.90 0.84 0.82 0.80 0.74 0.70 0.73 0.78 0.63 0.40 0.37 0.33 0.31 0.42 0.70 0.87 1.02 1.07 1.03 1.07
0.36 0.45 0.65 0.94 1.07 1.13 1.19 1.18 1.28 1.35 1.38 1.36 1.27 1.18 1.16 1.15 1.15 1.14 1.03 1.00 0.99 0.94 0.87 0.84 0.83 0.77 0.75 0.73 0.72 0.73 0.75 0.59 0.44 0.46 0.52 0.50 0.60 0.81 0.89 0.96 1.05 1.06 1.14
0.40 0.53 0.73 0.98 1.13 1.29 1.31 1.25 1.27 1.30 1.38 1.37 1.30 1.23 1.18 1.15 1.14 1.10 1.08 1.00 0.99 1.01 0.93 0.82 0.78 0.79 0.70 0.66 0.67 0.65 0.64 0.57 0.55 0.63 0.60 0.71 0.76 0.97 1.05 1.00 1.02 1.09 1.13
0.49 0.63 0.82 1.00 1.12 1.25 1.35 1.30 1.24 1.26 1.32 1.40 1.36 1.28 1.23 1.22 1.21 1.13 1.03 1.06 1.03 0.98 0.98 0.88 0.79 0.85 0.82 0.69 0.63 0.60 0.55 0.52 0.49 0.55 0.69 0.71 0.83 1.15 1.27 1.14 1.02 1.02 1.11
0.66 0.80 0.93 1.04 1.16 1.30 1.38 1.34 1.36 1.34 1.38 1.45 1.43 1.39 1.34 1.31 1.32 1.24 1.07 1.05 1.10 1.07 0.99 0.95 0.87 0.87 0.87 0.73 0.63 0.59 0.55 0.44 0.45 0.55 0.63 0.66 0.84 1.18 1.41 1.27 1.13 1.02 1.04
0.70 0.87 1.00 1.09 1.22 1.41 1.49 1.52 1.60 1.49 1.41 1.44 1.35 1.35 1.38 1.38 1.44 1.34 1.28 1.17 1.14 1.15 1.13 1.07 0.99 0.94 0.89 0.77 0.66 0.60 0.47 0.37 0.36 0.38 0.44 0.57 0.74 1.02 1.38 1.42 1.31 1.21 1.17
0.71 0.87 1.05 1.17 1.32 1.51 1.54 1.54 1.56 1.56 1.46 1.48 1.44 1.35 1.35 1.44 1.41 1.46 1.43 1.45 1.40 1.32 1.27 1.20 1.15 1.04 0.95 0.87 0.78 0.67 0.52 0.47 0.42 0.36 0.36 0.47 0.57 0.83 1.13 1.31 1.47 1.46 1.45
0.79 0.92 1.08 1.26 1.46 1.64 1.67 1.68 1.59 1.50 1.44 1.39 1.47 1.47 1.42 1.38 1.30 1.24 1.25 1.24 1.27 1.27 1.28 1.24 1.17 1.08 1.04 0.98 0.88 0.77 0.68 0.61 0.51 0.48 0.43 0.46 0.48 0.69 1.00 1.19 1.36 1.55 1.68
0.85 0.96 1.07 1.24 1.42 1.67 1.91 1.88 1.82 1.67 1.53 1.47 1.50 1.51 1.45 1.40 1.31 1.21 1.13 1.18 1.15 1.13 1.15 1.16 1.07 0.99 0.97 0.93 0.91 0.86 0.81 0.69 0.60 0.57 0.53 0.52 0.50 0.57 0.83 1.07 1.26 1.51 1.76
0.89 1.02 1.14 1.28 1.38 1.60 1.87 1.97 1.94 1.85 1.76 1.71 1.62 1.56 1.52 1.49 1.41 1.31 1.19 1.16 1.15 1.12 1.13 1.10 1.05 0.96 0.90 0.83 0.78 0.77 0.83 0.79 0.72 0.66 0.57 0.55 0.53 0.54 0.70 0.93 1.19 1.43 1.72
0.97 1.10 1.26 1.39 1.52 1.59 1.73 1.98 2.03 2.02 1.95 1.89 1.74 1.73 1.76 1.67 1.59 1.52 1.40 1.27 1.17 1.14 1.17 1.17 1.11 1.07 0.96 0.85 0.75 0.71 0.71 0.72 0.73 0.70 0.62 0.57 0.58 0.58 0.65 0.83 1.04 1.27 1.57
1.09 1.17 1.39 1.52 1.65 1.69 1.70 1.93 2.03 2.05 2.13 2.12 2.06 1.95 1.93 1.93 1.86 1.77 1.66 1.52 1.40 1.28 1.21 1.21 1.14 1.08 1.02 0.91 0.82 0.73 0.68 0.66 0.63 0.61 0.58 0.58 0.60 0.61 0.67 0.77 0.88 1.13 1.39
1.07 1.25 1.50 1.61 1.69 1.78 1.78 1.88 2.08 2.08 2.08 2.17 2.28 2.27 2.19 2.15 2.07 2.01 1.89 1.78 1.70 1.57 1.40 1.29 1.23 1.11 1.03 0.95 0.90 0.84 0.76 0.70 0.66 0.63 0.58 0.53 0.53 0.55 0.61 0.68 0.76 0.91 1.13
1.09 1.29 1.55 1.75 1.83 1.90 1.97 1.93 2.07 2.21 2.08 1.99 2.09 2.19 2.28 2.38 2.32 2.25 2.13 1.98 1.92 1.83 1.70 1.53 1.39 1.25 1.11 1.01 0.98 0.95 0.88 0.82 0.74 0.66 0.62 0.58 0.54 0.53 0.58 0.62 0.65 0.71 0.88
1.14 1.28 1.48 1.71 1.85 1.90 1.95 1.91 1.82 1.94 2.03 1.90 1.78 1.92 2.13 2.30 2.47 2.51 2.35 2.22 2.15 2.02 1.79 1.67 1.63 1.52 1.35 1.18 1.16 1.16 1.05 0.92 0.88 0.76 0.65 0.59 0.57 0.53 0.55 0.62 0.65 0.65 0.74
1.11 1.20 1.39 1.65 1.80 1.79 1.76 1.80 1.77 1.79 1.85 1.92 1.85 1.84 1.95 2.17 2.40 2.64 2.57 2.40 2.29 2.21 2.09 1.87 1.73 1.71 1.62 1.40 1.26 1.30 1.34 1.26 1.05 0.85 0.73 0.62 0.59 0.58 0.58 0.58 0.64 0.66 0.68
1.09 1.16 1.21 1.46 1.76 1.82 1.83 1.92 1.94 2.00 2.01 1.98 1.87 1.81 1.88 1.99 2.12 2.25 2.35 2.27 2.28 2.25 2.20 2.08 1.90 1.80 1.82 1.66 1.38 1.44 1.52 1.37 1.08 0.92 0.81 0.72 0.64 0.62 0.60 0.58 0.60 0.65 0.68
1.04 1.25 1.28 1.36 1.61 1.84 1.88 1.89 1.87 1.89 1.87 1.85 1.76 1.66 1.77 1.97 2.06 2.10 2.17 2.20 2.07 2.02 1.98 1.99 1.97 1.86 1.88 1.88 1.66 1.39 1.27 1.21 1.26 1.13 0.91 0.83 0.81 0.75 0.68 0.61 0.59 0.64 0.68
1.09 1.29 1.40 1.45 1.50 1.70 1.78 1.75 1.76 1.76 1.75 1.82 1.81 1.72 1.67 1.82 2.02 2.12 2.11 2.14 2.16 2.02 1.87 1.82 1.87 1.90 1.87 1.83 1.73 1.53 1.32 1.11 1.06 1.21 1.07 0.91 0.94 0.92 0.86 0.78 0.72 0.72 0.73
1.18 1.34 1.46 1.54 1.47 1.54 1.76 1.75 1.64 1.62 1.63 1.71 1.79 1.84 1.80 1.75 1.83 1.98 2.08 2.05 2.05 2.08 2.02 1.84 1.78 1.84 1.83 1.78 1.71 1.61 1.51 1.38 1.18 1.15 1.11 0.90 0.88 0.87 0.92 0.97 0.94 0.91 0.88